Regional Weather Roundup
Issued by NWS

Home | Current Version | Previous Version | Text Only | Print | Product List | Glossary Off
Versions: 1 2 3 4 5 6 7 8 9 10 11 12 13 14 15 16 17 18 19 20 21 22 23 24 25 26 27 28 29 30 31 32 33 34 35 36 37 38 39 40 41 42 43 44 45 46 47 48 49 50

000
ASUS45 KCYS 300110
RWRWY

WYOMING REGIONAL WEATHER ROUNDUP
NATIONAL WEATHER SERVICE CHEYENNE WY
700 PM MDT FRI APR 29 2016

NOTE:  "FAIR" INDICATES FEW OR NO CLOUDS BELOW 12,000 FEET
WITH NO SIGNIFICANT WEATHER AND/OR OBSTRUCTIONS TO VISIBILITY.

WYZ001-300200-
YELLOWSTONE NATIONAL PARK

CITY           SKY/WX    TMP DP  RH WIND       PRES   REMARKS
LK YELLOWSTONE   N/A     36  26  67 CALM      29.90R
W YELLOWSTONE  NOT AVBL

$$
WYZ002>013-054>058-071-098>099-300200-
NORTHERN WYOMING

CITY           SKY/WX    TMP DP  RH WIND       PRES   REMARKS
JACKSON        CLOUDY    46  34  61 NE13      29.83R
CODY           CLOUDY    45  28  53 CALM      29.94S
GREYBULL       CLOUDY    50  28  42 SW5       29.92S
WORLAND        CLOUDY    47  32  56 SE7       29.94R
SHERIDAN       CLOUDY    46  35  65 E8        29.97S
BUFFALO          N/A    N/A N/A N/A MISG      29.99R
GILLETTE       CLOUDY    42  37  82 E10       29.98R
HULETT         CLOUDY    41  32  70 E8        30.02R
NEWCASTLE      CLOUDY    43  32  65 E8        29.99R

$$
WYZ014>020-022>026-101>103-300200-
CENTRAL WYOMING

CITY           SKY/WX    TMP DP  RH WIND       PRES   REMARKS
BIG PINEY      FAIR      43  24  47 S9        29.87S
PINEDALE       CLOUDY    43  27  52 SE10      29.87S
DUBOIS         CLOUDY    34  30  86 E15       29.91R WCI  24
LANDER         LGT RAIN  35  33  92 VRB3      29.93F FOG
RIVERTON       LGT RAIN  37  34  89 SE5       29.95S WCI  33
CASPER         LGT RAIN  36  32  85 E13       29.95R WCI  27
DOUGLAS        CLOUDY    38  32  79 E10       29.97S WCI  31

$$
WYZ021-027>030-104>119-300200-
SOUTHERN WYOMING

CITY           SKY/WX    TMP DP  RH WIND       PRES   REMARKS
EVANSTON       CLOUDY    43  27  53 E7        29.85F
KEMMERER         N/A     41  28  60 SE5       29.87F
FORT BRIDGER   CLOUDY    39  36  87 SE3       29.91S
ROCK SPRINGS   CLOUDY    39  29  67 NE15      29.88F WCI  31
DIXON          CLOUDY    42  31  64 N8        29.85F
RAWLINS        CLOUDY    33  30  88 NE16G26   29.87S FOG     WCI  23
SARATOGA       LGT RAIN  32  32 100 S10       29.84S WCI  24
LARAMIE        LGT SNOW  30  28  92 E3        29.88S VSB 1
CHEYENNE       LGT SNOW  32  31  96 N8        29.89F VSB 1   WCI  25
TORRINGTON     LGT RAIN  36  34  92 NE6       29.94F WCI  31
PINE BLUFFS    LGT SNOW  32  32 100 N5        29.92F WCI  27

$$



USA.gov is the U.S. government's official web portal to all federal, state and local government web resources and services.